Weather in Kurshanovichi

Russia / Bryansk Oblast     52°10′19″N   32°06′58″E
temp.,
°C
wind,
m/s
gust,
m/s
humid.,
%
clouds,
%
prec.,
mm/h
press.,
hPa
HPBL,
m
1 july, fri
fri100:00+16nne347758 0.0 101854
03:00+15ne12870 0.0 101911
06:00+14nne35810 0.0 101992
09:00+21ne46610 0.0 1019446
12:00+24ne45470 0.0 10191354
15:00+26nne45460 0.0 10181816
18:00+25nne46550 0.0 10181811
21:00+20n36762 0.0 101983
2 july, sat
sat200:00+17ese612765 0.0 1021388
03:00+13ese38725 0.0 1023162
06:00+12ese37730 0.0 1024142
09:00+17ese34565 0.0 1024450
12:00+21ese33430 0.0 10241083
15:00+23ese11405 0.0 10231368
18:00+23ese01410 0.0 10231139
21:00+17e116497 0.0 102211
3 july, sun
sun300:00+15ssw11680 0.0 102211
03:00+13w22710 0.0 102211
06:00+14wnw22735 0.0 102229
09:00+20wnw235823 0.0 1022389
12:00+24nw234998 0.0 10211065
15:00+26nnw1245100 0.0 10201441
18:00+26nnw2248100 0.0 10191529
21:00+21nne116999 0.0 101911
4 july, mon
mon400:00+18w117911 0.0 101911
03:00+17w22803 0.0 101914
06:00+17wnw22805 0.0 101922
09:00+23wnw22655 0.0 1019404
12:00+27wsw01535 0.0 10181335
15:00+29sw22445 0.0 10171947
18:00+28sw32486 0.0 10171252
21:00+22sw226811 0.0 101715
5 july, tue
tue500:00+20sw226792 0.0 101711
03:00+19ssw22726 0.0 101816
06:00+19sse237764 0.0 101843
09:00+24s345955 0.0 1018376
12:00+28s33465 0.0 1017877
15:00+29ssw34437 0.0 10161727
18:00+26s345899 0.0 1015101
21:00+23nw4871100 0.0 1015233